Year,Month,Day,Hour,Minute,Value (Times are PST for windgust in km/hr)
2018,09,03,00,00,1.60
2018,09,03,00,01,1.60
2018,09,03,00,02,3.20
2018,09,03,00,04,3.20
2018,09,03,00,05,3.20
2018,09,03,00,06,1.60
2018,09,03,00,07,3.20
2018,09,03,00,08,1.60
2018,09,03,00,09,1.60
2018,09,03,00,10,1.60
2018,09,03,00,11,1.60
2018,09,03,00,12,1.60
2018,09,03,00,13,1.60
2018,09,03,00,14,1.60
2018,09,03,00,15,1.60
2018,09,03,00,16,1.60
2018,09,03,00,17,1.60
2018,09,03,00,18,1.60
2018,09,03,00,19,3.20
2018,09,03,00,20,1.60
2018,09,03,00,21,1.60
2018,09,03,00,22,1.60
2018,09,03,00,23,1.60
2018,09,03,00,24,1.60
2018,09,03,00,25,1.60
2018,09,03,00,26,1.60
2018,09,03,00,29,1.60
2018,09,03,00,30,1.60
2018,09,03,00,31,1.60
2018,09,03,00,32,1.60
2018,09,03,00,33,3.20
2018,09,03,00,34,3.20
2018,09,03,00,35,1.60
2018,09,03,00,38,1.60
2018,09,03,00,39,3.20
2018,09,03,00,40,3.20
2018,09,03,00,41,1.60
2018,09,03,00,42,3.20
2018,09,03,00,43,3.20
2018,09,03,00,44,1.60
2018,09,03,00,45,3.20
2018,09,03,00,46,3.20
2018,09,03,00,47,1.60
2018,09,03,00,48,1.60
2018,09,03,00,49,1.60
2018,09,03,00,50,1.60
2018,09,03,00,51,3.20
2018,09,03,00,52,1.60
2018,09,03,00,53,1.60
2018,09,03,00,54,1.60
2018,09,03,00,55,1.60
2018,09,03,00,56,1.60
2018,09,03,00,58,1.60
2018,09,03,00,59,1.60
2018,09,03,01,00,1.60
2018,09,03,01,01,1.60
2018,09,03,01,03,1.60
2018,09,03,01,04,3.20
2018,09,03,01,05,1.60
2018,09,03,01,06,3.20
2018,09,03,01,07,1.60
2018,09,03,01,08,1.60
2018,09,03,01,09,1.60
2018,09,03,01,10,1.60
2018,09,03,01,11,1.60
2018,09,03,01,12,1.60
2018,09,03,01,13,1.60
2018,09,03,01,14,1.60
2018,09,03,01,15,3.20
2018,09,03,01,16,3.20
2018,09,03,01,17,3.20
2018,09,03,01,18,1.60
2018,09,03,01,19,1.60
2018,09,03,01,20,1.60
2018,09,03,01,21,3.20
2018,09,03,01,22,1.60
2018,09,03,01,23,1.60
2018,09,03,01,24,1.60
2018,09,03,01,27,1.60
2018,09,03,01,28,1.60
2018,09,03,01,29,1.60
2018,09,03,01,30,1.60
2018,09,03,01,32,1.60
2018,09,03,01,33,1.60
2018,09,03,01,34,1.60
2018,09,03,01,35,1.60
2018,09,03,01,36,1.60
2018,09,03,01,37,1.60
2018,09,03,01,38,1.60
2018,09,03,01,39,1.60
2018,09,03,01,40,3.20
2018,09,03,01,41,1.60
2018,09,03,01,42,3.20
2018,09,03,01,43,1.60
2018,09,03,01,44,1.60
2018,09,03,01,45,1.60
2018,09,03,01,46,1.60
2018,09,03,01,47,1.60
2018,09,03,01,48,1.60
2018,09,03,01,49,3.20
2018,09,03,01,50,1.60
2018,09,03,01,51,1.60
2018,09,03,01,52,3.20
2018,09,03,01,53,3.20
2018,09,03,01,54,1.60
2018,09,03,01,55,1.60
2018,09,03,01,56,1.60
2018,09,03,01,57,1.60
2018,09,03,01,59,1.60
2018,09,03,02,00,1.60
2018,09,03,02,01,1.60
2018,09,03,02,02,1.60
2018,09,03,02,03,1.60
2018,09,03,02,12,1.60
2018,09,03,02,13,1.60
2018,09,03,02,14,1.60
2018,09,03,02,15,1.60
2018,09,03,02,16,1.60
2018,09,03,02,17,1.60
2018,09,03,02,18,1.60
2018,09,03,02,19,3.20
2018,09,03,02,20,3.20
2018,09,03,02,21,3.20
2018,09,03,02,22,3.20
2018,09,03,02,23,1.60
2018,09,03,02,24,1.60
2018,09,03,02,25,1.60
2018,09,03,02,26,1.60
2018,09,03,02,27,1.60
2018,09,03,02,29,1.60
2018,09,03,02,30,1.60
2018,09,03,02,31,1.60
2018,09,03,02,35,1.60
2018,09,03,02,36,3.20
2018,09,03,02,37,1.60
2018,09,03,02,38,3.20
2018,09,03,02,39,3.20
2018,09,03,02,40,1.60
2018,09,03,02,41,1.60
2018,09,03,02,43,1.60
2018,09,03,02,44,3.20
2018,09,03,02,45,1.60
2018,09,03,02,46,1.60
2018,09,03,02,47,1.60
2018,09,03,02,48,1.60
2018,09,03,02,49,3.20
2018,09,03,02,50,3.20
2018,09,03,02,51,1.60
2018,09,03,02,52,1.60
2018,09,03,02,53,1.60
2018,09,03,02,54,1.60
2018,09,03,02,58,1.60
2018,09,03,03,01,1.60
2018,09,03,03,03,1.60
2018,09,03,03,04,1.60
2018,09,03,03,05,1.60
2018,09,03,03,06,1.60
2018,09,03,03,08,1.60
2018,09,03,03,09,3.20
2018,09,03,03,10,1.60
2018,09,03,03,11,1.60
2018,09,03,03,12,3.20
2018,09,03,03,13,3.20
2018,09,03,03,14,1.60
2018,09,03,03,15,1.60
2018,09,03,03,16,1.60
2018,09,03,03,17,1.60
2018,09,03,03,18,1.60
2018,09,03,03,19,1.60
2018,09,03,03,20,1.60
2018,09,03,03,29,1.60
2018,09,03,03,30,1.60
2018,09,03,03,31,3.20
2018,09,03,03,32,3.20
2018,09,03,03,33,3.20
2018,09,03,03,34,1.60
2018,09,03,03,35,1.60
2018,09,03,03,36,3.20
2018,09,03,03,37,1.60
2018,09,03,03,38,1.60
2018,09,03,03,39,3.20
2018,09,03,03,40,1.60
2018,09,03,03,41,1.60
2018,09,03,03,50,1.60
2018,09,03,03,52,1.60
2018,09,03,03,53,3.20
2018,09,03,03,54,3.20
2018,09,03,03,56,1.60
2018,09,03,03,57,1.60
2018,09,03,03,58,1.60
2018,09,03,03,59,1.60
2018,09,03,04,01,1.60
2018,09,03,04,02,1.60
2018,09,03,04,03,1.60
2018,09,03,04,04,3.20
2018,09,03,04,05,3.20
2018,09,03,04,06,1.60
2018,09,03,04,07,1.60
2018,09,03,04,09,1.60
2018,09,03,04,10,1.60
2018,09,03,04,11,1.60
2018,09,03,04,12,1.60
2018,09,03,04,13,3.20
2018,09,03,04,14,3.20
2018,09,03,04,15,3.20
2018,09,03,04,16,1.60
2018,09,03,04,17,1.60
2018,09,03,04,18,1.60
2018,09,03,04,19,1.60
2018,09,03,04,20,1.60
2018,09,03,04,21,1.60
2018,09,03,04,31,1.60
2018,09,03,04,32,1.60
2018,09,03,04,36,1.60
2018,09,03,04,37,1.60
2018,09,03,04,38,1.60
2018,09,03,04,39,1.60
2018,09,03,04,40,1.60
2018,09,03,04,41,1.60
2018,09,03,04,43,1.60
2018,09,03,04,44,1.60
2018,09,03,04,45,1.60
2018,09,03,04,46,1.60
2018,09,03,04,47,1.60
2018,09,03,04,48,1.60
2018,09,03,04,49,1.60
2018,09,03,04,50,1.60
2018,09,03,04,51,3.20
2018,09,03,04,52,3.20
2018,09,03,04,53,3.20
2018,09,03,04,54,3.20
2018,09,03,04,55,1.60
2018,09,03,04,56,1.60
2018,09,03,04,57,1.60
2018,09,03,04,58,1.60
2018,09,03,04,59,1.60
2018,09,03,05,00,1.60
2018,09,03,05,10,1.60
2018,09,03,05,15,1.60
2018,09,03,05,16,1.60
2018,09,03,05,17,1.60
2018,09,03,05,18,1.60
2018,09,03,05,19,3.20
2018,09,03,05,20,3.20
2018,09,03,05,21,1.60
2018,09,03,05,22,1.60
2018,09,03,05,25,1.60
2018,09,03,05,26,1.60
2018,09,03,05,27,1.60
2018,09,03,05,30,1.60
2018,09,03,05,49,1.60
2018,09,03,05,50,1.60
2018,09,03,05,51,1.60
2018,09,03,05,52,1.60
2018,09,03,05,53,1.60
2018,09,03,05,54,1.60
2018,09,03,05,55,1.60
2018,09,03,05,56,1.60
2018,09,03,05,57,1.60
2018,09,03,05,58,1.60
2018,09,03,05,59,1.60
2018,09,03,06,00,3.20
2018,09,03,06,01,1.60
2018,09,03,06,02,1.60
2018,09,03,06,03,1.60
2018,09,03,06,04,1.60
2018,09,03,06,05,1.60
2018,09,03,06,06,1.60
2018,09,03,06,07,1.60
2018,09,03,06,08,1.60
2018,09,03,06,13,1.60
2018,09,03,06,14,1.60
2018,09,03,06,15,1.60
2018,09,03,06,16,1.60
2018,09,03,06,17,1.60
2018,09,03,06,27,1.60
2018,09,03,06,28,1.60
2018,09,03,06,29,1.60
2018,09,03,06,30,3.20
2018,09,03,06,31,3.20
2018,09,03,06,32,1.60
2018,09,03,06,33,1.60
2018,09,03,06,34,1.60
2018,09,03,06,35,1.60
2018,09,03,06,36,1.60
2018,09,03,06,37,1.60
2018,09,03,06,38,1.60
2018,09,03,06,39,3.20
2018,09,03,06,40,3.20
2018,09,03,06,41,1.60
2018,09,03,06,42,1.60
2018,09,03,06,43,3.20
2018,09,03,06,44,3.20
2018,09,03,06,45,3.20
2018,09,03,06,46,1.60
2018,09,03,06,47,1.60
2018,09,03,06,48,1.60
2018,09,03,06,49,1.60
2018,09,03,06,50,1.60
2018,09,03,06,51,1.60
2018,09,03,06,52,1.60
2018,09,03,06,53,1.60
2018,09,03,06,54,1.60
2018,09,03,06,55,1.60
2018,09,03,06,56,1.60
2018,09,03,06,57,1.60
2018,09,03,06,58,3.20
2018,09,03,06,59,1.60
2018,09,03,07,00,3.20
2018,09,03,07,01,1.60
2018,09,03,07,02,1.60
2018,09,03,07,03,1.60
2018,09,03,07,04,1.60
2018,09,03,07,05,1.60
2018,09,03,07,06,1.60
2018,09,03,07,07,3.20
2018,09,03,07,08,1.60
2018,09,03,07,09,1.60
2018,09,03,07,10,1.60
2018,09,03,07,11,1.60
2018,09,03,07,12,3.20
2018,09,03,07,13,3.20
2018,09,03,07,14,3.20
2018,09,03,07,15,3.20
2018,09,03,07,16,3.20
2018,09,03,07,17,3.20
2018,09,03,07,18,3.20
2018,09,03,07,19,3.20
2018,09,03,07,20,3.20
2018,09,03,07,21,3.20
2018,09,03,07,22,3.20
2018,09,03,07,23,1.60
2018,09,03,07,24,1.60
2018,09,03,07,25,3.20
2018,09,03,07,26,3.20
2018,09,03,07,27,3.20
2018,09,03,07,28,3.20
2018,09,03,07,29,3.20
2018,09,03,07,30,3.20
2018,09,03,07,31,3.20
2018,09,03,07,32,1.60
2018,09,03,07,33,3.20
2018,09,03,07,34,3.20
2018,09,03,07,35,1.60
2018,09,03,07,36,1.60
2018,09,03,07,37,1.60
2018,09,03,07,38,1.60
2018,09,03,07,39,1.60
2018,09,03,07,40,1.60
2018,09,03,07,41,1.60
2018,09,03,07,42,3.20
2018,09,03,07,43,1.60
2018,09,03,07,44,1.60
2018,09,03,07,45,1.60
2018,09,03,07,46,1.60
2018,09,03,07,47,3.20
2018,09,03,07,48,3.20
2018,09,03,07,49,3.20
2018,09,03,07,50,1.60
2018,09,03,07,51,1.60
2018,09,03,07,52,1.60
2018,09,03,07,53,1.60
2018,09,03,07,54,1.60
2018,09,03,07,55,1.60
2018,09,03,07,56,3.20
2018,09,03,07,57,3.20
2018,09,03,07,58,3.20
2018,09,03,07,59,3.20
2018,09,03,08,00,1.60
2018,09,03,08,02,1.60
2018,09,03,08,03,1.60
2018,09,03,08,04,1.60
2018,09,03,08,05,1.60
2018,09,03,08,07,1.60
2018,09,03,08,08,1.60
2018,09,03,08,09,1.60
2018,09,03,08,10,1.60
2018,09,03,08,11,1.60
2018,09,03,08,12,1.60
2018,09,03,08,13,1.60
2018,09,03,08,14,3.20
2018,09,03,08,15,1.60
2018,09,03,08,16,3.20
2018,09,03,08,17,3.20
2018,09,03,08,18,1.60
2018,09,03,08,19,3.20
2018,09,03,08,20,4.80
2018,09,03,08,21,3.20
2018,09,03,08,22,6.40
2018,09,03,08,23,4.80
2018,09,03,08,24,3.20
2018,09,03,08,25,1.60
2018,09,03,08,26,3.20
2018,09,03,08,27,1.60
2018,09,03,08,28,1.60
2018,09,03,08,29,3.20
2018,09,03,08,30,1.60
2018,09,03,08,31,6.40
2018,09,03,08,32,4.80
2018,09,03,08,33,4.80
2018,09,03,08,34,4.80
2018,09,03,08,35,4.80
2018,09,03,08,36,8.10
2018,09,03,08,37,3.20
2018,09,03,08,38,4.80
2018,09,03,08,39,6.40
2018,09,03,08,40,6.40
2018,09,03,08,41,6.40
2018,09,03,08,42,8.10
2018,09,03,08,43,3.20
2018,09,03,08,44,3.20
2018,09,03,08,45,8.10
2018,09,03,08,46,3.20
2018,09,03,08,47,8.10
2018,09,03,08,48,8.10
2018,09,03,08,49,4.80
2018,09,03,08,50,8.10
2018,09,03,08,51,6.40
2018,09,03,08,52,4.80
2018,09,03,08,53,3.20
2018,09,03,08,54,3.20
2018,09,03,08,55,3.20
2018,09,03,08,56,4.80
2018,09,03,08,57,9.60
2018,09,03,08,58,6.40
2018,09,03,08,59,3.20
2018,09,03,09,00,3.20
2018,09,03,09,01,4.80
2018,09,03,09,02,4.80
2018,09,03,09,03,11.30
2018,09,03,09,04,8.10
2018,09,03,09,05,6.40
2018,09,03,09,06,6.40
2018,09,03,09,07,3.20
2018,09,03,09,08,3.20
2018,09,03,09,09,1.60
2018,09,03,09,10,4.80
2018,09,03,09,11,3.20
2018,09,03,09,12,3.20
2018,09,03,09,13,3.20
2018,09,03,09,14,6.40
2018,09,03,09,15,8.10
2018,09,03,09,16,6.40
2018,09,03,09,17,14.50
2018,09,03,09,18,4.80
2018,09,03,09,19,3.20
2018,09,03,09,20,3.20
2018,09,03,09,21,3.20
2018,09,03,09,22,4.80
2018,09,03,09,23,4.80
2018,09,03,09,24,6.40
2018,09,03,09,25,6.40
2018,09,03,09,26,8.10
2018,09,03,09,27,8.10
2018,09,03,09,28,6.40
2018,09,03,09,29,1.60
2018,09,03,09,30,4.80
2018,09,03,09,31,8.10
2018,09,03,09,32,9.60
2018,09,03,09,33,9.60
2018,09,03,09,34,6.40
2018,09,03,09,35,6.40
2018,09,03,09,36,8.10
2018,09,03,09,37,6.40
2018,09,03,09,38,6.40
2018,09,03,09,39,4.80
2018,09,03,09,40,6.40
2018,09,03,09,41,6.40
2018,09,03,09,42,4.80
2018,09,03,09,43,1.60
2018,09,03,09,44,6.40
2018,09,03,09,45,4.80
2018,09,03,09,46,3.20
2018,09,03,09,47,3.20
2018,09,03,09,48,6.40
2018,09,03,09,49,3.20
2018,09,03,09,50,3.20
2018,09,03,09,51,6.40
2018,09,03,09,52,6.40
2018,09,03,09,53,6.40
2018,09,03,09,54,9.60
2018,09,03,09,55,4.80
2018,09,03,09,56,4.80
2018,09,03,09,57,6.40
2018,09,03,09,58,3.20
2018,09,03,09,59,11.30
2018,09,03,10,00,12.90
2018,09,03,10,01,6.40
2018,09,03,10,02,3.20
2018,09,03,10,03,4.80
2018,09,03,10,04,9.60
2018,09,03,10,05,8.10
2018,09,03,10,06,4.80
2018,09,03,10,07,4.80
2018,09,03,10,08,8.10
2018,09,03,10,09,8.10
2018,09,03,10,10,8.10
2018,09,03,10,11,3.20
2018,09,03,10,12,4.80
2018,09,03,10,13,8.10
2018,09,03,10,14,9.60
2018,09,03,10,15,11.30
2018,09,03,10,16,4.80
2018,09,03,10,17,12.90
2018,09,03,10,18,8.10
2018,09,03,10,19,6.40
2018,09,03,10,20,8.10
2018,09,03,10,21,6.40
2018,09,03,10,22,6.40
2018,09,03,10,23,12.90
2018,09,03,10,24,6.40
2018,09,03,10,25,6.40
2018,09,03,10,26,1.60
2018,09,03,10,27,3.20
2018,09,03,10,28,14.50
2018,09,03,10,29,9.60
2018,09,03,10,30,9.60
2018,09,03,10,31,11.30
2018,09,03,10,32,8.10
2018,09,03,10,33,4.80
2018,09,03,10,34,3.20
2018,09,03,10,35,6.40
2018,09,03,10,36,11.30
2018,09,03,10,37,9.60
2018,09,03,10,38,11.30
2018,09,03,10,39,12.90
2018,09,03,10,40,9.60
2018,09,03,10,41,6.40
2018,09,03,10,42,6.40
2018,09,03,10,43,4.80
2018,09,03,10,44,12.90
2018,09,03,10,45,9.60
2018,09,03,10,46,3.20
2018,09,03,10,47,3.20
2018,09,03,10,48,3.20
2018,09,03,10,49,8.10
2018,09,03,10,50,9.60
2018,09,03,10,51,4.80
2018,09,03,10,52,6.40
2018,09,03,10,53,17.70
2018,09,03,10,54,11.30
2018,09,03,10,55,11.30
2018,09,03,10,56,11.30
2018,09,03,10,57,11.30
2018,09,03,10,58,11.30
2018,09,03,10,59,6.40
2018,09,03,11,00,8.10
2018,09,03,11,01,8.10
2018,09,03,11,02,8.10
2018,09,03,11,03,11.30
2018,09,03,11,04,11.30
2018,09,03,11,05,11.30
2018,09,03,11,06,6.40
2018,09,03,11,07,11.30
2018,09,03,11,08,12.90
2018,09,03,11,09,9.60
2018,09,03,11,10,11.30
2018,09,03,11,11,11.30
2018,09,03,11,12,6.40
2018,09,03,11,13,11.30
2018,09,03,11,14,11.30
2018,09,03,11,15,19.30
2018,09,03,11,16,12.90
2018,09,03,11,17,12.90
2018,09,03,11,18,14.50
2018,09,03,11,19,16.10
2018,09,03,11,20,6.40
2018,09,03,11,21,12.90
2018,09,03,11,22,12.90
2018,09,03,11,23,8.10
2018,09,03,11,24,6.40
2018,09,03,11,25,9.60
2018,09,03,11,26,12.90
2018,09,03,11,27,8.10
2018,09,03,11,28,9.60
2018,09,03,11,29,8.10
2018,09,03,11,30,12.90
2018,09,03,11,31,3.20
2018,09,03,11,32,8.10
2018,09,03,11,33,9.60
2018,09,03,11,34,6.40
2018,09,03,11,35,11.30
2018,09,03,11,36,9.60
2018,09,03,11,37,12.90
2018,09,03,11,38,12.90
2018,09,03,11,39,4.80
2018,09,03,11,40,3.20
2018,09,03,11,41,11.30
2018,09,03,11,42,11.30
2018,09,03,11,43,8.10
2018,09,03,11,44,4.80
2018,09,03,11,45,3.20
2018,09,03,11,46,4.80
2018,09,03,11,47,9.60
2018,09,03,11,48,9.60
2018,09,03,11,49,12.90
2018,09,03,11,50,11.30
2018,09,03,11,51,16.10
2018,09,03,11,52,11.30
2018,09,03,11,53,11.30
2018,09,03,11,54,11.30
2018,09,03,11,55,9.60
2018,09,03,11,56,12.90
2018,09,03,11,57,3.20
2018,09,03,11,58,9.60
2018,09,03,11,59,9.60
2018,09,03,12,00,11.30
2018,09,03,12,01,6.40
2018,09,03,12,02,8.10
2018,09,03,12,03,8.10
2018,09,03,12,04,12.90
2018,09,03,12,05,14.50
2018,09,03,12,06,12.90
2018,09,03,12,07,6.40
2018,09,03,12,08,12.90
2018,09,03,12,09,9.60
2018,09,03,12,10,12.90
2018,09,03,12,11,12.90
2018,09,03,12,12,12.90
2018,09,03,12,13,6.40
2018,09,03,12,14,11.30
2018,09,03,12,15,9.60
2018,09,03,12,16,9.60
2018,09,03,12,17,14.50
2018,09,03,12,18,6.40
2018,09,03,12,19,8.10
2018,09,03,12,20,6.40
2018,09,03,12,21,3.20
2018,09,03,12,22,9.60
2018,09,03,12,23,8.10
2018,09,03,12,24,8.10
2018,09,03,12,25,11.30
2018,09,03,12,26,11.30
2018,09,03,12,27,9.60
2018,09,03,12,28,11.30
2018,09,03,12,29,4.80
2018,09,03,12,30,6.40
2018,09,03,12,31,17.70
2018,09,03,12,32,11.30
2018,09,03,12,33,12.90
2018,09,03,12,34,12.90
2018,09,03,12,35,12.90
2018,09,03,12,36,12.90
2018,09,03,12,37,11.30
2018,09,03,12,38,9.60
2018,09,03,12,39,11.30
2018,09,03,12,40,11.30
2018,09,03,12,41,11.30
2018,09,03,12,42,4.80
2018,09,03,12,43,3.20
2018,09,03,12,44,4.80
2018,09,03,12,45,6.40
2018,09,03,12,46,11.30
2018,09,03,12,47,9.60
2018,09,03,12,48,8.10
2018,09,03,12,49,6.40
2018,09,03,12,50,3.20
2018,09,03,12,51,11.30
2018,09,03,12,52,4.80
2018,09,03,12,53,6.40
2018,09,03,12,54,6.40
2018,09,03,12,55,12.90
2018,09,03,12,56,14.50
2018,09,03,12,57,6.40
2018,09,03,12,58,14.50
2018,09,03,12,59,9.60
2018,09,03,13,00,4.80
2018,09,03,13,01,6.40
2018,09,03,13,02,9.60
2018,09,03,13,03,9.60
2018,09,03,13,04,6.40
2018,09,03,13,05,9.60
2018,09,03,13,06,9.60
2018,09,03,13,07,8.10
2018,09,03,13,08,8.10
2018,09,03,13,09,12.90
2018,09,03,13,10,6.40
2018,09,03,13,11,14.50
2018,09,03,13,12,16.10
2018,09,03,13,13,11.30
2018,09,03,13,14,4.80
2018,09,03,13,15,3.20
2018,09,03,13,16,4.80
2018,09,03,13,17,6.40
2018,09,03,13,18,6.40
2018,09,03,13,19,3.20
2018,09,03,13,20,12.90
2018,09,03,13,21,14.50
2018,09,03,13,22,6.40
2018,09,03,13,23,8.10
2018,09,03,13,24,8.10
2018,09,03,13,25,6.40
2018,09,03,13,26,9.60
2018,09,03,13,27,4.80
2018,09,03,13,28,6.40
2018,09,03,13,29,9.60
2018,09,03,13,30,6.40
2018,09,03,13,31,11.30
2018,09,03,13,32,8.10
2018,09,03,13,33,11.30
2018,09,03,13,34,14.50
2018,09,03,13,35,12.90
2018,09,03,13,36,9.60
2018,09,03,13,37,4.80
2018,09,03,13,38,4.80
2018,09,03,13,39,6.40
2018,09,03,13,40,9.60
2018,09,03,13,41,12.90
2018,09,03,13,42,14.50
2018,09,03,13,43,14.50
2018,09,03,13,44,6.40
2018,09,03,13,45,19.30
2018,09,03,13,46,19.30
2018,09,03,13,47,4.80
2018,09,03,13,48,12.90
2018,09,03,13,49,11.30
2018,09,03,13,50,6.40
2018,09,03,13,51,6.40
2018,09,03,13,52,11.30
2018,09,03,13,53,14.50
2018,09,03,13,54,19.30
2018,09,03,13,55,8.10
2018,09,03,13,56,6.40
2018,09,03,13,57,6.40
2018,09,03,13,58,6.40
2018,09,03,13,59,8.10
2018,09,03,14,00,6.40
2018,09,03,14,01,3.20
2018,09,03,14,02,8.10
2018,09,03,14,03,6.40
2018,09,03,14,04,4.80
2018,09,03,14,05,6.40
2018,09,03,14,06,6.40
2018,09,03,14,07,4.80
2018,09,03,14,08,4.80
2018,09,03,14,09,12.90
2018,09,03,14,10,8.10
2018,09,03,14,11,12.90
2018,09,03,14,12,4.80
2018,09,03,14,13,4.80
2018,09,03,14,14,4.80
2018,09,03,14,15,3.20
2018,09,03,14,16,8.10
2018,09,03,14,17,12.90
2018,09,03,14,18,12.90
2018,09,03,14,19,12.90
2018,09,03,14,20,9.60
2018,09,03,14,21,9.60
2018,09,03,14,22,6.40
2018,09,03,14,23,14.50
2018,09,03,14,24,8.10
2018,09,03,14,25,8.10
2018,09,03,14,26,3.20
2018,09,03,14,27,3.20
2018,09,03,14,28,6.40
2018,09,03,14,29,6.40
2018,09,03,14,30,9.60
2018,09,03,14,31,3.20
2018,09,03,14,32,3.20
2018,09,03,14,33,4.80
2018,09,03,14,34,12.90
2018,09,03,14,35,4.80
2018,09,03,14,36,3.20
2018,09,03,14,37,4.80
2018,09,03,14,38,8.10
2018,09,03,14,39,6.40
2018,09,03,14,40,3.20
2018,09,03,14,41,3.20
2018,09,03,14,42,3.20
2018,09,03,14,43,4.80
2018,09,03,14,44,4.80
2018,09,03,14,45,8.10
2018,09,03,14,46,8.10
2018,09,03,14,47,3.20
2018,09,03,14,48,8.10
2018,09,03,14,49,4.80
2018,09,03,14,50,6.40
2018,09,03,14,51,3.20
2018,09,03,14,52,3.20
2018,09,03,14,53,6.40
2018,09,03,14,54,6.40
2018,09,03,14,55,8.10
2018,09,03,14,56,11.30
2018,09,03,14,57,11.30
2018,09,03,14,58,6.40
2018,09,03,14,59,12.90
2018,09,03,15,00,11.30
2018,09,03,15,01,6.40
2018,09,03,15,02,11.30
2018,09,03,15,03,8.10
2018,09,03,15,04,4.80
2018,09,03,15,05,12.90
2018,09,03,15,06,6.40
2018,09,03,15,07,6.40
2018,09,03,15,08,6.40
2018,09,03,15,09,4.80
2018,09,03,15,10,11.30
2018,09,03,15,11,4.80
2018,09,03,15,12,6.40
2018,09,03,15,13,11.30
2018,09,03,15,14,4.80
2018,09,03,15,15,6.40
2018,09,03,15,16,9.60
2018,09,03,15,17,16.10
2018,09,03,15,18,4.80
2018,09,03,15,19,8.10
2018,09,03,15,20,9.60
2018,09,03,15,21,11.30
2018,09,03,15,22,8.10
2018,09,03,15,23,4.80
2018,09,03,15,24,8.10
2018,09,03,15,25,14.50
2018,09,03,15,26,11.30
2018,09,03,15,27,6.40
2018,09,03,15,28,8.10
2018,09,03,15,29,8.10
2018,09,03,15,30,6.40
2018,09,03,15,31,12.90
2018,09,03,15,32,6.40
2018,09,03,15,33,19.30
2018,09,03,15,34,12.90
2018,09,03,15,35,9.60
2018,09,03,15,36,12.90
2018,09,03,15,37,11.30
2018,09,03,15,38,6.40
2018,09,03,15,39,16.10
2018,09,03,15,40,6.40
2018,09,03,15,41,14.50
2018,09,03,15,42,16.10
2018,09,03,15,43,8.10
2018,09,03,15,44,9.60
2018,09,03,15,45,11.30
2018,09,03,15,46,9.60
2018,09,03,15,47,11.30
2018,09,03,15,48,12.90
2018,09,03,15,49,12.90
2018,09,03,15,50,9.60
2018,09,03,15,51,9.60
2018,09,03,15,52,3.20
2018,09,03,15,53,14.50
2018,09,03,15,54,9.60
2018,09,03,15,55,8.10
2018,09,03,15,56,12.90
2018,09,03,15,57,12.90
2018,09,03,15,58,14.50
2018,09,03,15,59,11.30
2018,09,03,16,00,4.80
2018,09,03,16,01,4.80
2018,09,03,16,02,4.80
2018,09,03,16,03,14.50
2018,09,03,16,04,12.90
2018,09,03,16,05,9.60
2018,09,03,16,06,11.30
2018,09,03,16,07,6.40
2018,09,03,16,08,9.60
2018,09,03,16,09,4.80
2018,09,03,16,10,9.60
2018,09,03,16,11,4.80
2018,09,03,16,12,6.40
2018,09,03,16,13,11.30
2018,09,03,16,14,9.60
2018,09,03,16,15,9.60
2018,09,03,16,16,9.60
2018,09,03,16,17,11.30
2018,09,03,16,18,6.40
2018,09,03,16,19,9.60
2018,09,03,16,20,4.80
2018,09,03,16,21,11.30
2018,09,03,16,22,4.80
2018,09,03,16,23,8.10
2018,09,03,16,24,3.20
2018,09,03,16,25,6.40
2018,09,03,16,26,4.80
2018,09,03,16,27,8.10
2018,09,03,16,28,3.20
2018,09,03,16,29,6.40
2018,09,03,16,30,9.60
2018,09,03,16,31,8.10
2018,09,03,16,32,4.80
2018,09,03,16,33,3.20
2018,09,03,16,34,1.60
2018,09,03,16,35,3.20
2018,09,03,16,36,3.20
2018,09,03,16,37,4.80
2018,09,03,16,38,3.20
2018,09,03,16,39,6.40
2018,09,03,16,40,8.10
2018,09,03,16,41,6.40
2018,09,03,16,42,3.20
2018,09,03,16,43,3.20
2018,09,03,16,44,4.80
2018,09,03,16,45,6.40
2018,09,03,16,46,8.10
2018,09,03,16,47,6.40
2018,09,03,16,48,4.80
2018,09,03,16,49,4.80
2018,09,03,16,50,6.40
2018,09,03,16,51,8.10
2018,09,03,16,52,6.40
2018,09,03,16,53,4.80
2018,09,03,16,54,6.40
2018,09,03,16,55,6.40
2018,09,03,16,56,3.20
2018,09,03,16,57,3.20
2018,09,03,16,58,4.80
2018,09,03,16,59,3.20
2018,09,03,17,00,3.20
2018,09,03,17,01,3.20
2018,09,03,17,02,8.10
2018,09,03,17,03,8.10
2018,09,03,17,04,3.20
2018,09,03,17,05,4.80
2018,09,03,17,06,4.80
2018,09,03,17,07,6.40
2018,09,03,17,08,4.80
2018,09,03,17,09,3.20
2018,09,03,17,10,9.60
2018,09,03,17,11,11.30
2018,09,03,17,12,4.80
2018,09,03,17,13,6.40
2018,09,03,17,14,4.80
2018,09,03,17,15,3.20
2018,09,03,17,16,3.20
2018,09,03,17,17,6.40
2018,09,03,17,18,8.10
2018,09,03,17,19,4.80
2018,09,03,17,20,4.80
2018,09,03,17,21,4.80
2018,09,03,17,22,3.20
2018,09,03,17,23,1.60
2018,09,03,17,24,1.60
2018,09,03,17,25,4.80
2018,09,03,17,26,4.80
2018,09,03,17,27,8.10
2018,09,03,17,28,4.80
2018,09,03,17,29,3.20
2018,09,03,17,30,1.60
2018,09,03,17,31,3.20
2018,09,03,17,32,3.20
2018,09,03,17,33,9.60
2018,09,03,17,34,9.60
2018,09,03,17,35,6.40
2018,09,03,17,36,8.10
2018,09,03,17,37,4.80
2018,09,03,17,38,4.80
2018,09,03,17,39,8.10
2018,09,03,17,40,8.10
2018,09,03,17,41,1.60
2018,09,03,17,42,3.20
2018,09,03,17,43,4.80
2018,09,03,17,44,8.10
2018,09,03,17,45,3.20
2018,09,03,17,46,8.10
2018,09,03,17,47,3.20
2018,09,03,17,48,6.40
2018,09,03,17,49,14.50
2018,09,03,17,50,8.10
2018,09,03,17,51,3.20
2018,09,03,17,52,3.20
2018,09,03,17,53,6.40
2018,09,03,17,54,3.20
2018,09,03,17,55,3.20
2018,09,03,17,56,3.20
2018,09,03,17,57,1.60
2018,09,03,17,58,4.80
2018,09,03,17,59,6.40
2018,09,03,18,00,1.60
2018,09,03,18,01,4.80
2018,09,03,18,02,6.40
2018,09,03,18,03,4.80
2018,09,03,18,04,9.60
2018,09,03,18,05,6.40
2018,09,03,18,06,8.10
2018,09,03,18,07,8.10
2018,09,03,18,08,3.20
2018,09,03,18,09,3.20
2018,09,03,18,10,6.40
2018,09,03,18,11,4.80
2018,09,03,18,12,4.80
2018,09,03,18,13,4.80
2018,09,03,18,14,8.10
2018,09,03,18,15,6.40
2018,09,03,18,16,4.80
2018,09,03,18,17,4.80
2018,09,03,18,18,3.20
2018,09,03,18,19,6.40
2018,09,03,18,20,4.80
2018,09,03,18,21,6.40
2018,09,03,18,22,4.80
2018,09,03,18,23,4.80
2018,09,03,18,24,6.40
2018,09,03,18,25,6.40
2018,09,03,18,26,3.20
2018,09,03,18,27,8.10
2018,09,03,18,28,6.40
2018,09,03,18,29,6.40
2018,09,03,18,30,6.40
2018,09,03,18,31,6.40
2018,09,03,18,32,6.40
2018,09,03,18,33,4.80
2018,09,03,18,34,3.20
2018,09,03,18,35,3.20
2018,09,03,18,36,3.20
2018,09,03,18,37,1.60
2018,09,03,18,38,3.20
2018,09,03,18,39,1.60
2018,09,03,18,40,4.80
2018,09,03,18,41,3.20
2018,09,03,18,42,4.80
2018,09,03,18,43,4.80
2018,09,03,18,44,4.80
2018,09,03,18,45,4.80
2018,09,03,18,46,3.20
2018,09,03,18,47,4.80
2018,09,03,18,48,4.80
2018,09,03,18,49,3.20
2018,09,03,18,50,3.20
2018,09,03,18,51,6.40
2018,09,03,18,52,4.80
2018,09,03,18,53,3.20
2018,09,03,18,54,1.60
2018,09,03,18,55,3.20
2018,09,03,18,56,3.20
2018,09,03,18,57,3.20
2018,09,03,18,58,1.60
2018,09,03,18,59,1.60
2018,09,03,19,00,1.60
2018,09,03,19,01,1.60
2018,09,03,19,02,3.20
2018,09,03,19,03,4.80
2018,09,03,19,04,4.80
2018,09,03,19,05,1.60
2018,09,03,19,06,1.60
2018,09,03,19,07,1.60
2018,09,03,19,08,1.60
2018,09,03,19,09,1.60
2018,09,03,19,10,1.60
2018,09,03,19,11,1.60
2018,09,03,19,13,1.60
2018,09,03,19,14,3.20
2018,09,03,19,15,1.60
2018,09,03,19,16,1.60
2018,09,03,19,17,1.60
2018,09,03,19,18,1.60
2018,09,03,19,19,1.60
2018,09,03,19,20,1.60
2018,09,03,19,21,1.60
2018,09,03,19,22,1.60
2018,09,03,19,24,1.60
2018,09,03,19,29,1.60
2018,09,03,19,30,1.60
2018,09,03,19,31,1.60
2018,09,03,19,33,1.60
2018,09,03,19,34,1.60
2018,09,03,19,35,3.20
2018,09,03,19,36,3.20
2018,09,03,19,37,3.20
2018,09,03,19,38,1.60
2018,09,03,19,39,3.20
2018,09,03,19,40,1.60
2018,09,03,19,41,1.60
2018,09,03,19,42,1.60
2018,09,03,19,43,1.60
2018,09,03,19,44,1.60
2018,09,03,19,45,1.60
2018,09,03,19,46,1.60
2018,09,03,19,47,1.60
2018,09,03,19,48,1.60
2018,09,03,19,49,1.60
2018,09,03,19,50,1.60
2018,09,03,19,51,1.60
2018,09,03,19,52,1.60
2018,09,03,19,53,1.60
2018,09,03,19,54,1.60
2018,09,03,19,55,1.60
2018,09,03,19,56,1.60
2018,09,03,19,57,3.20
2018,09,03,19,58,3.20
2018,09,03,19,59,3.20
2018,09,03,20,00,1.60
2018,09,03,20,01,1.60